Total_Precipitation_Accumulation
0.69 0.71 0.70 0.71 0.75 0.77 0.73 0.66 0.61 0.58 0.55 0.53 0.49 0.47 0.45 0.44 0.42 0.41 0.38 0.34 0.32 0.30 0.27 0.24 0.23 0.23 0.24 0.23 0.25 0.30 0.35 0.47 0.55 0.38 0.29 0.32 0.37 0.39 0.41 0.45 0.44 0.48 0.59
0.55 0.55 0.53 0.52 0.51 0.53 0.55 0.56 0.51 0.51 0.50 0.46 0.41 0.38 0.36 0.32 0.29 0.27 0.24 0.22 0.22 0.22 0.22 0.23 0.22 0.22 0.24 0.24 0.28 0.31 0.36 0.47 0.61 0.55 0.43 0.45 0.47 0.49 0.59 0.61 0.54 0.47 0.55
0.48 0.48 0.46 0.45 0.42 0.42 0.43 0.42 0.40 0.39 0.39 0.36 0.32 0.32 0.29 0.27 0.25 0.22 0.21 0.19 0.18 0.19 0.21 0.22 0.22 0.25 0.27 0.31 0.39 0.43 0.46 0.49 0.64 0.68 0.56 0.58 0.63 0.69 0.81 0.75 0.63 0.60 0.47
0.46 0.45 0.43 0.44 0.43 0.40 0.37 0.34 0.33 0.32 0.32 0.33 0.31 0.27 0.23 0.20 0.18 0.17 0.16 0.15 0.16 0.17 0.20 0.24 0.27 0.33 0.38 0.43 0.46 0.48 0.52 0.58 0.64 0.71 0.68 0.71 0.77 0.82 0.88 0.87 0.72 0.63 0.56
0.42 0.43 0.47 0.48 0.48 0.45 0.42 0.39 0.39 0.37 0.32 0.31 0.29 0.25 0.21 0.17 0.13 0.10 0.08 0.10 0.15 0.18 0.20 0.22 0.27 0.35 0.41 0.41 0.39 0.42 0.53 0.66 0.69 0.77 0.78 0.75 0.75 0.85 0.87 0.76 0.66 0.56 0.50
0.51 0.53 0.54 0.51 0.48 0.46 0.44 0.41 0.41 0.38 0.32 0.27 0.23 0.19 0.16 0.09 0.08 0.08 0.07 0.10 0.15 0.21 0.24 0.24 0.22 0.24 0.23 0.24 0.31 0.37 0.48 0.66 0.89 1.01 0.92 0.83 0.71 0.71 0.73 0.68 0.68 0.63 0.55
0.64 0.60 0.54 0.49 0.46 0.43 0.38 0.39 0.37 0.31 0.26 0.23 0.18 0.14 0.13 0.08 0.05 0.05 0.06 0.10 0.18 0.25 0.29 0.28 0.21 0.16 0.19 0.24 0.27 0.32 0.44 0.60 0.82 1.09 1.12 0.88 0.79 0.74 0.75 0.74 0.76 0.77 0.70
0.64 0.58 0.49 0.41 0.38 0.38 0.38 0.34 0.28 0.24 0.22 0.20 0.16 0.13 0.13 0.07 0.03 0.03 0.04 0.09 0.18 0.23 0.25 0.26 0.28 0.27 0.23 0.25 0.27 0.33 0.47 0.63 0.74 0.81 1.07 0.91 0.73 0.69 0.71 0.70 0.74 0.72 0.65
0.57 0.46 0.36 0.30 0.29 0.29 0.27 0.24 0.22 0.22 0.21 0.16 0.12 0.12 0.14 0.10 0.02 0.02 0.03 0.08 0.14 0.18 0.20 0.19 0.18 0.23 0.23 0.33 0.43 0.59 0.73 0.88 0.86 0.97 1.12 1.09 0.96 0.87 0.73 0.69 0.76 0.73 0.67
0.38 0.30 0.25 0.22 0.18 0.16 0.17 0.18 0.19 0.19 0.17 0.12 0.10 0.12 0.14 0.11 0.02 0.00 0.02 0.06 0.12 0.15 0.20 0.23 0.18 0.17 0.25 0.42 0.60 0.80 0.93 1.05 0.97 1.05 1.27 1.31 1.16 1.12 1.07 0.92 0.87 0.77 0.71
0.25 0.20 0.17 0.13 0.10 0.10 0.14 0.16 0.16 0.14 0.14 0.13 0.13 0.15 0.13 0.07 0.03 0.00 0.01 0.04 0.08 0.13 0.21 0.30 0.32 0.25 0.32 0.52 0.72 0.84 1.00 1.07 1.07 1.10 1.09 1.09 1.14 1.14 1.07 1.00 0.89 0.74 0.67
0.18 0.16 0.12 0.09 0.05 0.06 0.13 0.16 0.15 0.16 0.16 0.15 0.15 0.15 0.14 0.12 0.05 0.02 0.00 0.01 0.04 0.16 0.31 0.35 0.38 0.35 0.41 0.61 0.77 0.97 1.16 1.26 1.19 1.15 0.97 0.86 0.82 0.83 0.84 0.78 0.70 0.62 0.57
0.18 0.17 0.13 0.09 0.08 0.07 0.12 0.14 0.14 0.15 0.13 0.11 0.12 0.14 0.14 0.16 0.11 0.02 0.01 0.02 0.05 0.15 0.29 0.36 0.40 0.42 0.58 0.90 1.08 1.21 1.34 1.39 1.33 1.14 0.93 0.83 0.71 0.64 0.64 0.67 0.65 0.57 0.51
0.21 0.18 0.15 0.15 0.13 0.11 0.11 0.09 0.10 0.10 0.10 0.10 0.12 0.15 0.17 0.17 0.11 0.07 0.08 0.09 0.10 0.17 0.31 0.44 0.54 0.61 0.78 1.07 1.28 1.44 1.48 1.36 1.15 1.01 0.89 0.83 0.72 0.63 0.62 0.55 0.52 0.49 0.51
0.19 0.15 0.13 0.13 0.13 0.13 0.11 0.05 0.04 0.05 0.03 0.06 0.10 0.12 0.15 0.13 0.07 0.07 0.10 0.11 0.13 0.17 0.29 0.46 0.61 0.73 0.92 1.11 1.27 1.34 1.34 1.23 1.09 0.89 0.78 0.79 0.78 0.71 0.65 0.54 0.46 0.40 0.45
0.17 0.13 0.10 0.08 0.08 0.09 0.15 0.12 0.03 0.01 0.01 0.02 0.03 0.05 0.06 0.07 0.05 0.07 0.10 0.13 0.17 0.23 0.33 0.48 0.60 0.71 0.88 1.07 1.19 1.19 1.11 1.04 0.93 0.79 0.72 0.69 0.68 0.65 0.62 0.53 0.43 0.40 0.43
0.14 0.11 0.07 0.06 0.06 0.08 0.13 0.20 0.18 0.10 0.04 0.04 0.03 0.04 0.04 0.04 0.05 0.07 0.11 0.17 0.19 0.25 0.34 0.50 0.61 0.72 0.88 1.02 1.07 1.06 1.02 0.93 0.82 0.74 0.68 0.62 0.56 0.53 0.48 0.43 0.39 0.38 0.37
0.08 0.05 0.04 0.06 0.06 0.07 0.10 0.12 0.16 0.20 0.22 0.19 0.09 0.04 0.04 0.06 0.07 0.08 0.11 0.16 0.22 0.26 0.39 0.54 0.64 0.71 0.78 0.85 0.91 0.96 0.97 0.88 0.77 0.70 0.67 0.62 0.54 0.47 0.39 0.36 0.33 0.30 0.30
0.06 0.08 0.07 0.05 0.05 0.05 0.06 0.08 0.09 0.13 0.17 0.19 0.17 0.11 0.08 0.10 0.12 0.15 0.17 0.21 0.28 0.35 0.44 0.55 0.62 0.67 0.69 0.69 0.74 0.80 0.82 0.80 0.72 0.66 0.63 0.60 0.54 0.46 0.37 0.29 0.25 0.15 0.18
0.04 0.02 0.03 0.03 0.03 0.03 0.04 0.06 0.07 0.10 0.14 0.18 0.18 0.16 0.16 0.23 0.28 0.29 0.25 0.23 0.27 0.35 0.43 0.50 0.55 0.59 0.57 0.57 0.58 0.62 0.64 0.64 0.61 0.58 0.55 0.53 0.45 0.35 0.29 0.23 0.20 0.18 0.19
0.03 0.01 0.01 0.02 0.03 0.03 0.03 0.04 0.06 0.08 0.13 0.17 0.17 0.14 0.20 0.28 0.34 0.34 0.33 0.31 0.33 0.37 0.40 0.42 0.44 0.46 0.45 0.44 0.44 0.45 0.49 0.53 0.54 0.55 0.52 0.46 0.37 0.29 0.23 0.18 0.15 0.13 0.13
0.01 0.01 0.01 0.02 0.02 0.01 0.01 0.03 0.05 0.07 0.09 0.12 0.15 0.15 0.22 0.26 0.30 0.34 0.36 0.38 0.38 0.38 0.37 0.36 0.37 0.38 0.37 0.37 0.36 0.36 0.39 0.42 0.48 0.52 0.52 0.45 0.34 0.25 0.19 0.14 0.12 0.11 0.10
0.00 0.00 0.00 0.01 0.00 0.00 0.01 0.02 0.04 0.05 0.07 0.09 0.11 0.14 0.20 0.27 0.33 0.37 0.39 0.38 0.38 0.37 0.33 0.30 0.32 0.34 0.33 0.30 0.29 0.31 0.33 0.36 0.42 0.48 0.51 0.44 0.32 0.23 0.17 0.15 0.13 0.12 0.08
0.00 0.00 0.00 0.00 0.00 0.00 0.01 0.01 0.02 0.03 0.05 0.07 0.09 0.13 0.18 0.26 0.33 0.40 0.43 0.41 0.39 0.38 0.35 0.33 0.32 0.31 0.27 0.23 0.21 0.20 0.21 0.26 0.35 0.43 0.43 0.40 0.30 0.21 0.14 0.13 0.12 0.09 0.08
0.00 0.00 0.00 0.00 0.00 0.00 0.01 0.01 0.01 0.02 0.02 0.04 0.06 0.08 0.12 0.16 0.22 0.30 0.39 0.43 0.43 0.43 0.39 0.37 0.36 0.32 0.26 0.19 0.14 0.12 0.17 0.24 0.29 0.33 0.37 0.35 0.26 0.20 0.15 0.13 0.10 0.06 0.06
0.00 0.00 0.00 0.00 0.00 0.00 0.00 0.01 0.01 0.01 0.01 0.02 0.03 0.04 0.05 0.08 0.12 0.18 0.26 0.32 0.37 0.42 0.46 0.49 0.46 0.36 0.26 0.19 0.17 0.17 0.18 0.19 0.19 0.20 0.25 0.28 0.21 0.17 0.15 0.13 0.07 0.05 0.05